This demonstration page uses our WeatherBlox Daily Observations layout. Learn more.

Left ArrowRight Arrow

34.74481, -87.66753

Hourly Observations for February 13, 2018

Temp ( °F °C ) Dew Point ( °F °C ) Humidity (%) Winds ( mph kmh ) Pressure ( in mb ) Visibility ( mi km ) Precip ( " mm )
12:53 am 00:53 Cloudy 39 3.9 34 1.1 82 82 ENE 5 7 30.50 1033 9 14 0.00 0.00
1:16 am 01:16 Cloudy 39 3.9 34 1.1 82 82 ENE 5 7 30.53 1034 9 14 0.00 0.00
1:53 am 01:53 Cloudy 39 3.9 34 1.1 82 82 ENE 5 7 30.50 1033 8 13 0.00 0.00
2:53 am 02:53 Cloudy 40 4.4 34 1.1 79 79 ENE 5 7 30.49 1033 8 13 0.00 0.00
3:53 am 03:53 Cloudy 40 4.4 34 1.1 79 79 NE 5 7 30.50 1033 8 13 0.00 0.00
4:53 am 04:53 Cloudy 40 4.4 35 1.7 83 83 NE 3 6 30.51 1033 8 13 0.00 0.00
5:53 am 05:53 Cloudy 40 4.4 35 1.7 83 83 E 3 6 30.53 1034 7 11 0.00 0.00
6:35 am 06:35 Cloudy 40 4.4 35 1.7 83 83 Calm 30.56 1035 7 11 0.00 0.00
6:53 am 06:53 Cloudy with Haze 41 5 36 2.2 82 82 ESE 5 7 30.54 1034 6 10 0.00 0.00
7:18 am 07:18 Cloudy with Haze 41 5 36 2.2 82 82 ESE 5 7 30.56 1035 6 10 0.00 0.00
7:53 am 07:53 Cloudy with Haze 41 5 36 2.2 82 82 ESE 5 7 30.55 1035 6 10 0.00 0.00
8:37 am 08:37 Cloudy with Haze 42 5.6 37 2.8 82 82 E 3 6 30.59 1036 5 8 0.00 0.00
8:53 am 08:53 Cloudy with Haze 42 5.6 37 2.8 82 82 E 3 6 30.56 1035 5 8 0.00 0.00
9:53 am 09:53 Cloudy with Haze 44 6.7 39 3.9 83 83 E 3 6 30.56 1035 4 6 0.00 0.00
10:53 am 10:53 Cloudy with Haze 46 7.8 40 4.4 79 79 Calm 30.57 1035 6 10 0.00 0.00
11:45 am 11:45 Cloudy with Haze 49 9.4 42 5.6 77 77 S 3 6 30.56 1035 6 10 0.00 0.00
11:53 am 11:53 Cloudy with Haze 49 9.4 42 5.6 77 77 SSE 3 6 30.55 1035 6 10 0.00 0.00
12:04 pm 12:04 Cloudy with Haze 49 9.4 43 6.1 80 80 Calm 30.53 1034 6 10 0.00 0.00
12:53 pm 12:53 Cloudy 52 11.1 45 7.2 77 77 Calm 30.51 1033 7 11 0.00 0.00
1:53 pm 13:53 Cloudy 54 12.2 46 7.8 75 75 Calm 30.50 1033 8 13 0.00 0.00
2:53 pm 14:53 Cloudy 56 13.3 48 8.9 75 75 Calm 30.48 1032 10 16 0.00 0.00
3:02 pm 15:02 Cloudy 56 13.3 48 8.9 75 75 Calm 30.48 1032 10 16 0.00 0.00
3:27 pm 15:27 Cloudy 56 13.3 48 8.9 75 75 SSE 3 6 30.48 1032 10 16 0.00 0.00
3:53 pm 15:53 Cloudy 57 13.9 49 9.4 74 74 S 5 7 30.47 1032 10 16 0.00 0.00
4:32 pm 16:32 Cloudy 57 13.9 49 9.4 74 74 SE 3 6 30.48 1032 10 16 0.00 0.00
4:53 pm 16:53 Cloudy 57 13.9 50 10 78 78 E 3 6 30.47 1032 10 16 0.00 0.00
5:19 pm 17:19 Cloudy 57 13.9 50 10 78 78 Calm 30.48 1032 10 16 0.00 0.00
5:53 pm 17:53 Cloudy 57 13.9 50 10 78 78 SSE 3 6 30.48 1032 10 16 0.00 0.00
6:53 pm 18:53 Cloudy 55 12.8 50 10 83 83 E 3 6 30.47 1032 10 16 0.00 0.00
7:53 pm 19:53 Cloudy 55 12.8 50 10 83 83 Calm 30.47 1032 10 16 0.00 0.00
8:53 pm 20:53 Cloudy with Haze 55 12.8 49 9.4 80 80 NE 3 6 30.48 1032 5 8 0.00 0.00
9:53 pm 21:53 Cloudy 54 12.2 49 9.4 83 83 SE 7 11 30.47 1032 10 16 0.00 0.00
10:53 pm 22:53 Mostly Cloudy 55 12.8 51 10.6 87 87 SE 7 11 30.45 1031 10 16 0.00 0.00
11:10 pm 23:10 Partly Cloudy 54 12.2 51 10.6 90 90 SE 8 13 30.45 1031 10 16 0.00 0.00
11:19 pm 23:19 Mostly Cloudy 55 12.8 52 11.1 90 90 SSE 7 11 30.45 1031 10 16 0.00 0.00
11:53 pm 23:53 Cloudy 57 13.9 53 11.7 87 87 S 3 6 30.45 1031 8 13 0.00 0.00

Powered by AerisWeather